Home   Weather   Salt Lake City   Past weeks

Flag for USA Past Weather in Salt Lake City, Utah, USA — Yesterday and Last 2 Weeks

57 °F

Passing clouds.

Feels Like: 56 °F
Forecast: 54 / 75 °F
Wind: 6 mph from West

Location: Salt Lake City International Airport

Current Time: Oct 26, 2016 at 9:14:51 PM

Latest Report: Oct 26, 2016 at 7:54 PM

Visibility: 10 mi

Pressure: 30.07 "Hg (25.72 "Hg at 1312m altitude)

Humidity: 62%

Dew Point: 44 °F

Location of Salt Lake CityLocation

Past Weather in Salt Lake City — Graph


Salt Lake City Temperature Yesterday

Maximum temperature yesterday: 70 °F (at 3:54 PM)
Minimum temperature yesterday: 53 °F (at 11:54 PM)
Average temperature yesterday: 61 °F

High & Low Weather Summary for the Past Weeks

High75 °F (Oct 15, 2:54 PM)93% (Oct 17, 6:54 AM)30.45 "Hg (Oct 17, 6:54 AM)
Low37 °F (Oct 21, 6:54 AM)16% (Oct 14, 12:54 PM)29.52 "Hg (Oct 16, 1:54 AM)
Average56 °F54%29.99 "Hg
* Reported Oct 11 7:54 PM — Oct 26 7:54 PM, Salt Lake City, Weather by CustomWeather, © 2016

Note: Actual official high and low records may vary slightly from our data, if they occured in-between our weather recording intervals... More about our weather records


Salt Lake City Weather History for the Previous 24 Hours

Scroll right to see more
Time TempWeatherWind HumidityBarometerVisibility
7:54 PM
Wed, Oct 26
57 °FPassing clouds.6 mph62%30.07 "Hg10 mi
6:54 PM62 °FPassing clouds.No wind52%30.07 "Hg10 mi
5:54 PM70 °FPassing clouds.5 mph35%30.06 "Hg10 mi
4:54 PM72 °FPassing clouds.7 mph30%30.07 "Hg10 mi
3:54 PM74 °FPassing clouds.15 mph19%30.07 "Hg10 mi
2:54 PM73 °FScattered clouds.14 mph24%30.09 "Hg10 mi
1:54 PM71 °FScattered clouds.15 mph31%30.11 "Hg10 mi
12:54 PM68 °FPartly sunny.10 mph38%30.14 "Hg10 mi
11:54 AM65 °FPartly sunny.18 mph40%30.17 "Hg10 mi
10:54 AM62 °FPartly sunny.17 mph44%30.18 "Hg10 mi
9:54 AM59 °FPartly sunny.14 mph51%30.19 "Hg10 mi
8:54 AM55 °FScattered clouds.14 mph57%30.18 "Hg10 mi
7:54 AM52 °FPartly sunny.10 mph66%30.18 "Hg10 mi
6:54 AM49 °FPassing clouds.9 mph71%30.19 "Hg10 mi
5:54 AM52 °FClear.8 mph66%30.16 "Hg10 mi
4:54 AM50 °FClear.9 mph63%30.14 "Hg10 mi
3:54 AM50 °FClear.7 mph68%30.14 "Hg10 mi
2:54 AM50 °FClear.7 mph68%30.15 "Hg10 mi
1:54 AM52 °FClear.7 mph66%30.13 "Hg10 mi
12:54 AM53 °FClear.7 mph56%30.12 "Hg10 mi
11:54 PM
Tue, Oct 25
53 °FClear.5 mph61%30.13 "Hg10 mi
10:54 PM55 °FClear.5 mph55%30.11 "Hg10 mi
9:54 PM56 °FClear.7 mph58%30.11 "Hg10 mi
Weather by CustomWeather, © 2016

See weather overviewHow to use our weather pages